KN4CI-1 Weather Reports


Display with metric or nautical units.
time (UTC)temp
F
wind
direction
speed
MPH
gust
MPH
rain 1hr
in
rain 24hr
in
rain mn
in
humidity
%
barometer
mb
20260507012737 61 60 4.0 0.0 0.00 0.00 0.00 52 1012.6
20260507011735 61 77 0.0 5.0 0.00 0.00 0.00 53 1012.6
20260507011235 61 50 0.0 4.0 0.00 0.00 0.00 53 1012.6
20260507005231 62 351 3.0 0.0 0.00 0.00 0.00 51 1012.6
20260507003229 62 342 0.0 0.0 0.00 0.00 0.00 50 1013.6
20260506235723 63 356 0.0 0.0 0.00 0.00 0.00 53 1012.6
20260506235217 63 356 0.0 0.0 0.00 0.00 0.00 53 1012.6
20260506232210 63 343 0.0 7.0 0.00 0.00 0.00 53 1013.6
20260506223156 65 347 0.0 0.0 0.00 0.00 0.00 51 1012.6
20260506215119 67 338 3.0 11.0 0.00 0.00 0.00 46 1012.6
20260506193555 68 74 0.0 0.0 0.00 0.00 0.00 45 1012.6
20260506193051 68 14 0.0 0.0 0.00 0.00 0.00 43 1012.6
20260506192551 68 15 0.0 0.0 0.00 0.00 0.00 43 1012.6
20260506192046 69 36 0.0 5.0 0.00 0.00 0.00 43 1012.6
20260506191546 68 78 0.0 3.0 0.00 0.00 0.00 42 1012.6
20260506191045 69 59 0.0 5.0 0.00 0.00 0.00 41 1012.6
20260506190542 69 65 0.0 0.0 0.00 0.00 0.00 41 1012.6
20260506184537 69 83 0.0 0.0 0.00 0.00 0.00 40 1012.6
20260506183031 69 326 0.0 0.0 0.00 0.00 0.00 41 1013.6
20260506182532 69 325 0.0 0.0 0.00 0.00 0.00 38 1013.6
20260506182025 69 109 0.0 8.0 0.00 0.00 0.00 38 1013.6
20260506181526 69 67 4.0 6.0 0.00 0.00 0.00 36 1013.6
20260506181026 70 72 0.0 7.0 0.00 0.00 0.00 34 1013.6
20260506180521 71 58 0.0 0.0 0.00 0.00 0.00 36 1012.6
20260506174520 72 248 0.0 0.0 0.00 0.00 0.00 35 1013.6
20260506171518 72 154 0.0 0.0 0.00 0.00 0.00 36 1013.6
20260506171016 72 144 0.0 3.0 0.00 0.00 0.00 37 1013.6
20260506170514 71 144 0.0 0.0 0.00 0.00 0.00 37 1013.6
20260506164509 71 258 0.0 0.0 0.00 0.00 0.00 35 1013.6
20260506164007 71 258 0.0 0.0 0.00 0.00 0.00 35 1013.6
20260506163503 71 242 0.0 0.0 0.00 0.00 0.00 34 1012.6
20260506155454 73 238 0.0 5.0 0.00 0.00 0.00 30 1012.6
20260506152418 75 145 0.0 0.0 0.00 0.00 0.00 33 1012.6
20260506150915 73 145 0.0 0.0 0.00 0.00 0.00 36 1012.6
20260506150412 73 287 0.0 4.0 0.00 0.00 0.00 36 1012.6
20260506145412 72 244 0.0 0.0 0.00 0.00 0.00 43 1012.6
20260506144408 71 164 0.0 0.0 0.00 0.00 0.00 46 1012.6
20260506143405 70 139 0.0 4.0 0.00 0.00 0.00 55 1012.6
20260506142407 69 167 0.0 0.0 0.00 0.00 0.00 58 1012.6
20260506141400 68 167 0.0 0.0 0.00 0.00 0.00 58 1013.6
20260506140900 68 166 0.0 0.0 0.00 0.00 0.00 59 1013.6
20260506140359 68 160 0.0 0.0 0.00 0.00 0.00 60 1013.6
20260506135900 67 155 0.0 0.0 0.00 0.00 0.00 61 1013.6
20260506133335 66 305 4.0 10.0 0.00 0.00 0.00 57 1013.6
20260506111247 68 260 3.0 7.0 0.00 0.00 0.00 34 1010.6
20260506104737 68 144 4.0 4.0 0.00 0.00 0.00 32 1010.6